N55JG KGRB-KSUE

Flight info

Callsign N55JG
Flight time 0h 27m
Altitude 5500
Route AGOMA
Aircraft C172/L-SFG/C

Departure

Time 2026-05-07 19:31
Airport Austin Straubel International Airport (KGRB)

Arrival

Time 2026-05-07 19:58
Airport Door County Cherryland Airport (KSUE)
Time Latitude Longitude Altitude Speed Heading
2026-05-07 19:19 44.49201 -88.12904 691 ft 0 kts 160°
2026-05-07 19:25 44.49200 -88.12903 691 ft 0 kts 162°
2026-05-07 19:25 44.49195 -88.12886 688 ft 9 kts 66°
2026-05-07 19:25 44.49216 -88.12958 683 ft 12 kts 250°
2026-05-07 19:25 44.49194 -88.13062 686 ft 11 kts 215°
2026-05-07 19:26 44.49131 -88.13063 688 ft 8 kts 152°
2026-05-07 19:26 44.49092 -88.13028 689 ft 7 kts 133°
2026-05-07 19:26 44.49049 -88.12940 688 ft 15 kts 124°
2026-05-07 19:26 44.48979 -88.12797 686 ft 18 kts 129°
2026-05-07 19:27 44.48903 -88.12653 684 ft 18 kts 113°
2026-05-07 19:27 44.48919 -88.12495 682 ft 17 kts 55°
2026-05-07 19:27 44.48975 -88.12350 681 ft 16 kts 60°
2026-05-07 19:27 44.49025 -88.12232 684 ft 13 kts 59°
2026-05-07 19:28 44.49065 -88.12129 684 ft 12 kts 63°
2026-05-07 19:28 44.49113 -88.12024 684 ft 13 kts 62°
2026-05-07 19:28 44.49155 -88.11915 684 ft 13 kts 60°
2026-05-07 19:28 44.49210 -88.11791 680 ft 16 kts 60°
2026-05-07 19:29 44.49264 -88.11650 678 ft 16 kts 58°
2026-05-07 19:29 44.49324 -88.11521 675 ft 16 kts 56°
2026-05-07 19:29 44.49376 -88.11381 674 ft 16 kts 79°
2026-05-07 19:29 44.49369 -88.11325 674 ft 0 kts 139°
2026-05-07 19:30 44.49332 -88.11295 675 ft 13 kts 152°
2026-05-07 19:30 44.49257 -88.11344 675 ft 16 kts 252°
2026-05-07 19:30 44.49178 -88.11558 677 ft 45 kts 239°
2026-05-07 19:30 44.48974 -88.12071 788 ft 65 kts 240°
2026-05-07 19:31 44.48735 -88.12622 1020 ft 67 kts 238°
2026-05-07 19:31 44.48485 -88.13119 1298 ft 62 kts 238°
2026-05-07 19:31 44.48208 -88.13566 1575 ft 63 kts 224°
2026-05-07 19:31 44.47707 -88.13410 1796 ft 92 kts 149°
2026-05-07 19:32 44.47446 -88.12588 2021 ft 95 kts 76°
2026-05-07 19:32 44.47586 -88.11711 2237 ft 94 kts 66°
2026-05-07 19:32 44.47851 -88.10843 2407 ft 97 kts 54°
2026-05-07 19:32 44.48199 -88.10083 2617 ft 92 kts 44°
2026-05-07 19:33 44.48591 -88.09393 2840 ft 92 kts 46°
2026-05-07 19:33 44.48935 -88.08636 3076 ft 91 kts 56°
2026-05-07 19:33 44.49249 -88.07819 3243 ft 97 kts 54°
2026-05-07 19:33 44.49602 -88.07061 3489 ft 93 kts 46°
2026-05-07 19:34 44.49938 -88.06249 3665 ft 102 kts 70°
2026-05-07 19:34 44.50162 -88.05306 3868 ft 102 kts 65°
2026-05-07 19:34 44.50396 -88.04372 4121 ft 99 kts 68°
2026-05-07 19:34 44.50618 -88.03445 4329 ft 101 kts 67°
2026-05-07 19:35 44.50832 -88.02547 4588 ft 95 kts 68°
2026-05-07 19:35 44.51029 -88.01664 4768 ft 97 kts 70°
2026-05-07 19:35 44.51197 -88.00741 4970 ft 101 kts 72°
2026-05-07 19:35 44.51378 -87.99762 5150 ft 105 kts 71°
2026-05-07 19:36 44.51555 -87.98800 5357 ft 104 kts 70°
2026-05-07 19:36 44.51764 -87.97804 5505 ft 109 kts 71°
2026-05-07 19:36 44.51959 -87.96716 5528 ft 118 kts 75°
2026-05-07 19:36 44.52155 -87.95562 5550 ft 122 kts 73°
2026-05-07 19:37 44.52404 -87.94392 5521 ft 129 kts 71°
2026-05-07 19:37 44.52629 -87.93128 5409 ft 138 kts 74°
2026-05-07 19:37 44.52867 -87.91812 5293 ft 140 kts 74°
2026-05-07 19:37 44.53100 -87.90539 5322 ft 134 kts 73°
2026-05-07 19:38 44.53329 -87.89290 5368 ft 131 kts 73°
2026-05-07 19:38 44.53559 -87.88036 5463 ft 132 kts 73°
2026-05-07 19:38 44.53783 -87.86799 5502 ft 130 kts 74°
2026-05-07 19:38 44.54008 -87.85562 5507 ft 131 kts 72°
2026-05-07 19:39 44.54237 -87.84341 5449 ft 136 kts 74°
2026-05-07 19:39 44.54451 -87.83075 5496 ft 130 kts 75°
2026-05-07 19:39 44.54664 -87.81841 5509 ft 130 kts 72°
2026-05-07 19:39 44.54895 -87.80609 5511 ft 131 kts 73°
2026-05-07 19:40 44.55130 -87.79393 5511 ft 131 kts 72°
2026-05-07 19:40 44.55353 -87.78160 5505 ft 130 kts 72°
2026-05-07 19:40 44.55575 -87.76939 5505 ft 128 kts 73°
2026-05-07 19:40 44.55793 -87.75734 5503 ft 126 kts 73°
2026-05-07 19:41 44.56008 -87.74549 5503 ft 125 kts 72°
2026-05-07 19:41 44.56224 -87.73357 5503 ft 126 kts 72°
2026-05-07 19:41 44.56441 -87.72167 5506 ft 128 kts 73°
2026-05-07 19:41 44.56657 -87.70957 5507 ft 128 kts 73°
2026-05-07 19:42 44.56876 -87.69748 5521 ft 127 kts 74°
2026-05-07 19:42 44.57089 -87.68565 5523 ft 127 kts 74°
2026-05-07 19:42 44.57307 -87.67362 5523 ft 127 kts 74°
2026-05-07 19:42 44.57525 -87.66153 5522 ft 128 kts 74°
2026-05-07 19:43 44.57741 -87.64952 5519 ft 126 kts 74°
2026-05-07 19:43 44.57952 -87.63776 5518 ft 125 kts 74°
2026-05-07 19:43 44.58167 -87.62586 5517 ft 125 kts 74°
2026-05-07 19:43 44.58381 -87.61394 5516 ft 126 kts 74°
2026-05-07 19:44 44.58751 -87.60339 5507 ft 121 kts 40°
2026-05-07 19:44 44.59443 -87.59708 5514 ft 117 kts 19°
2026-05-07 19:44 44.60157 -87.59188 5515 ft 116 kts 20°
2026-05-07 19:44 44.60877 -87.58664 5512 ft 116 kts 19°
2026-05-07 19:45 44.61592 -87.58140 5511 ft 116 kts 19°
2026-05-07 19:45 44.62306 -87.57619 5509 ft 115 kts 20°
2026-05-07 19:45 44.63021 -87.57095 5510 ft 116 kts 19°
2026-05-07 19:45 44.63738 -87.56571 5511 ft 116 kts 20°
2026-05-07 19:46 44.64457 -87.56044 5516 ft 117 kts 19°
2026-05-07 19:46 44.65164 -87.55518 5513 ft 116 kts 21°
2026-05-07 19:46 44.65877 -87.54985 5512 ft 115 kts 20°
2026-05-07 19:46 44.66587 -87.54464 5508 ft 115 kts 19°
2026-05-07 19:47 44.67297 -87.53953 5512 ft 114 kts 20°
2026-05-07 19:47 44.68001 -87.53449 5463 ft 115 kts 22°
2026-05-07 19:47 44.68674 -87.52814 5277 ft 115 kts 25°
2026-05-07 19:47 44.69329 -87.52269 5158 ft 108 kts 20°
2026-05-07 19:48 44.70028 -87.51752 4903 ft 116 kts 22°
2026-05-07 19:48 44.70705 -87.51135 4695 ft 118 kts 28°
2026-05-07 19:48 44.71390 -87.50481 4464 ft 118 kts 27°
2026-05-07 19:48 44.72082 -87.49893 4295 ft 113 kts 21°
2026-05-07 19:49 44.72543 -87.49573 4193 ft 109 kts 18°
2026-05-07 19:49 44.73224 -87.49117 4020 ft 110 kts 18°
2026-05-07 19:49 44.73894 -87.48590 3875 ft 108 kts 22°
2026-05-07 19:49 44.74539 -87.48064 3684 ft 108 kts 25°
2026-05-07 19:50 44.75191 -87.47510 3502 ft 109 kts 24°
2026-05-07 19:50 44.75824 -87.46967 3371 ft 104 kts 21°
2026-05-07 19:50 44.76461 -87.46495 3221 ft 104 kts 19°
2026-05-07 19:50 44.77324 -87.45833 2964 ft 106 kts 17°
2026-05-07 19:51 44.77770 -87.45558 2874 ft 104 kts 17°
2026-05-07 19:51 44.78414 -87.45072 2680 ft 109 kts 19°
2026-05-07 19:51 44.79076 -87.44553 2677 ft 105 kts 19°
2026-05-07 19:51 44.79763 -87.44089 2641 ft 111 kts 17°
2026-05-07 19:52 44.80480 -87.43668 2607 ft 114 kts 16°
2026-05-07 19:52 44.81181 -87.43195 2651 ft 112 kts 14°
2026-05-07 19:52 44.81938 -87.42803 2483 ft 117 kts 11°
2026-05-07 19:52 44.82672 -87.42474 2483 ft 110 kts 10°
2026-05-07 19:53 44.83404 -87.42144 2428 ft 107 kts
2026-05-07 19:53 44.84131 -87.42075 2362 ft 103 kts 348°
2026-05-07 19:53 44.84862 -87.42056 2303 ft 107 kts 358°
2026-05-07 19:53 44.85558 -87.41781 2366 ft 100 kts 14°
2026-05-07 19:54 44.86224 -87.41530 2332 ft 102 kts
2026-05-07 19:54 44.86893 -87.41256 2359 ft 101 kts
2026-05-07 19:54 44.87557 -87.41100 2313 ft 86 kts 338°
2026-05-07 19:54 44.87904 -87.41599 2210 ft 76 kts 281°
2026-05-07 19:55 44.87918 -87.42358 2071 ft 80 kts 272°
2026-05-07 19:55 44.87715 -87.43014 2055 ft 79 kts 225°
2026-05-07 19:55 44.87138 -87.43141 1947 ft 98 kts 176°
2026-05-07 19:55 44.86493 -87.42615 1822 ft 112 kts 143°
2026-05-07 19:56 44.86074 -87.41705 1816 ft 112 kts 101°
2026-05-07 19:56 44.85968 -87.40619 1675 ft 109 kts 88°
2026-05-07 19:56 44.86078 -87.39609 1516 ft 102 kts 76°
2026-05-07 19:56 44.85909 -87.38690 1417 ft 96 kts 141°
2026-05-07 19:57 44.85313 -87.38504 1302 ft 88 kts 193°
2026-05-07 19:57 44.84731 -87.38565 1276 ft 79 kts 206°
2026-05-07 19:57 44.84401 -87.39092 1102 ft 73 kts 259°
2026-05-07 19:57 44.84356 -87.39694 988 ft 59 kts 281°
2026-05-07 19:58 44.84380 -87.40278 891 ft 59 kts 272°
2026-05-07 19:58 44.84401 -87.40875 797 ft 63 kts 283°
2026-05-07 19:58 44.84427 -87.41481 746 ft 61 kts 278°
2026-05-07 19:58 44.84451 -87.42011 722 ft 44 kts 282°
2026-05-07 19:59 44.84464 -87.42298 722 ft 15 kts 269°
2026-05-07 19:59 44.84395 -87.42359 722 ft 11 kts 194°
2026-05-07 19:59 44.84388 -87.42362 722 ft 1 kts 192°
2026-05-07 19:59 44.84336 -87.42376 722 ft 11 kts 192°
2026-05-07 20:00 44.84257 -87.42403 724 ft 12 kts 193°
2026-05-07 20:00 44.84203 -87.42449 724 ft 8 kts 263°
2026-05-07 20:00 44.84183 -87.42474 724 ft 0 kts 180°